Preview of NWS' New Version of Forecast
This preview is not operational and should not be used for support decisions.

Regional Weather Roundup (RWR)

Issued by National Weather Service (NWS)

                            
000
ASUS43 KMKX 190700
RWRWI 

WISCONSIN REGIONAL WEATHER ROUNDUP
NATIONAL WEATHER SERVICE MILWAUKEE/SULLIVAN WI
200 AM CDT MON AUG 19 2019

NOTE: "FAIR" INDICATES FEW OR NO CLOUDS BELOW 12,000 FEET WITH NO
SIGNIFICANT WEATHER AND/OR OBSTRUCTIONS TO VISIBILITY.

WIZ001-002-006>008-014>016-023>028-190800-
NORTHWEST WISCONSIN
  
CITY           SKY/WX    TMP DP  RH WIND       PRES   REMARKS
SUPERIOR ARPT  FAIR      53  47  82 CALM      29.91S                  
ASHLAND        FAIR      54  46  74 SW9       29.92R                  
HAYWARD        FAIR      45  43  93 N3        29.94S FOG              
SIREN          FAIR      49  48  95 CALM      29.95R                  
CUMBERLAND     FAIR      48  46  93 CALM      29.96R                  
RICE LAKE      HAZE      50  35  56 CALM      29.96R VSB 1/4          
CHETEK         FAIR      50  50 100 CALM      29.96R                  
LADYSMITH      FAIR      52  51  99 CALM      29.97R                  
EAU CLAIRE     NOT AVBL                                               
MENOMONIE      FAIR      51  49  93 CALM      29.97R                  
NEW RICHMOND   FAIR      52  51  97 CALM      29.97R                  
OSCEOLA        FAIR      51  51 100 CALM      29.99R                  
$$
 
WIZ003>005-009-010-017-018-190800-
NORTH CENTRAL WISCONSIN
  
CITY           SKY/WX    TMP DP  RH WIND       PRES   REMARKS
MANITOWISH WTR FAIR      44  44 100 CALM      29.93R                  
ARBOR VITAE    FAIR      54  51  89 CALM      29.93R                  
WOODRUFF       FAIR      54  51  89 CALM      29.93R                  
RHINELANDER    FAIR      50  48  93 W5        29.95R                  
EAGLE RIVER    FAIR      48  48 100 W3        29.92S                  
LAND O LAKES   FAIR      46  45  95 CALM      29.94R                  
PHILLIPS       FAIR      48  48 100 CALM      29.94R                  
TOMAHAWK       FAIR      46  45  98 CALM      29.95R                  
MEDFORD        FAIR      50  49  95 CALM      29.96R                  
MERRILL        FOG       49  49 100 CALM      29.95R VSB 1/2          
$$
 
WIZ029-030-035-036-043>047-190800-
CENTRAL WISCONSIN
  
CITY           SKY/WX    TMP DP  RH WIND       PRES   REMARKS
WAUSAU         FAIR      56  53  90 NW3       29.94R                  
MOSINEE        FAIR      54  54 100 W6        29.96R                  
MARSHFIELD     FAIR      54  52  93 W3        29.95R                  
STEVENS POINT  FAIR      50  50 100 CALM      29.96R                  
WAUPACA        FAIR      60  57  91 W3        29.95R                  
WAUTOMA        FAIR      57  57 100 CALM      29.96                   
WISC RAPIDS    FAIR      56  53  90 CALM      29.96R                  
CAMP DOUGLAS   FOG       54  54 100 CALM      29.95R VSB 1/2          
$$
 
WIZ011>013-019>022-031-037>040-048>050-190800-
NORTHEAST WISCONSIN
  
CITY           SKY/WX    TMP DP  RH WIND       PRES   REMARKS
ANTIGO         FAIR      49  49 100 CALM      29.95S FOG              
SHAWANO        FAIR      61  58  91 W3        29.93R                  
OCONTO         FAIR      55  54  96 CALM      29.92R                  
STURGEON BAY   FAIR      59  58  96 CALM      29.92R                  
GREEN BAY      FAIR      61  59  93 W6        29.93R                  
MANITOWOC      FAIR      65  61  87 W7        29.93R                  
APPLETON       NOT AVBL                                               
CLINTONVILLE   FAIR      58  54  86 W3        29.94R                  
OSHKOSH        MOCLDY    65  59  81 W5        29.93R                  
$$
 
WIZ032>034-041-042-053>061-190800-
SOUTHWEST WISCONSIN
  
CITY           SKY/WX    TMP DP  RH WIND       PRES   REMARKS
LA CROSSE      FAIR      61  57  87 CALM      29.95R                  
SPARTA         FAIR      51  51  99 CALM      29.96R                  
VIROQUA        FAIR      60  60 100 NW3       29.96S                  
BOSCOBEL       FOG       64  63  96 CALM      29.96R VSB 1/4          
PRAIRIE DU CHI FAIR      62  61  95 CALM      29.96R                  
PLATTEVILLE      N/A     63  63 100 N3        29.96S VSB 1            
$$

WIZ056-057-062-063-064-067-068-190800-
SOUTH CENTRAL WISCONSIN
  
CITY           SKY/WX    TMP DP  RH WIND       PRES   REMARKS
REEDSBURG      FAIR      62  62 100 CALM      29.95R                  
BARABOO/DELLS  MOCLDY    61  59  96 CALM      29.95S                  
LONE ROCK      NOT AVBL                                               
MINERAL POINT    N/A     64  64 100 CALM      29.96R                  
MADISON        FAIR      64  62  93 CALM      29.94R                  
MIDDLETON      FAIR      64  30  27 NW3       29.95R                  
WATERTOWN      FAIR      62  62 100 CALM      29.93S                  
MONROE         FAIR      69  65  89 SW5       29.95R                  
JANESVILLE     FOG       63  63 100 CALM      29.94S VSB 3/4          
$$
 
WIZ051-052-058>065-066-070>072-190800-
SOUTHEAST WISCONSIN
  
CITY           SKY/WX    TMP DP  RH WIND       PRES   REMARKS
MILWAUKEE      FAIR      70  64  81 W3        29.93R                  
WAUKESHA       FAIR      61  61 100 CALM      29.95S                  
MILWAUKEE/TIMM FAIR      63  59  88 W3        29.94S                  
RACINE         FAIR      68  64  87 W5        29.95R                  
KENOSHA        FAIR      65  64  97 W3        29.94R                  
FOND DU LAC    MOCLDY    66  61  84 W3        29.94R                  
SHEBOYGAN      FAIR      65  61  87 W5        29.92S                  
WEST BEND      MOCLDY    63  63 100 NW3       29.94R                  
JUNEAU         CLOUDY    63  62  99 CALM      29.95S                  
$$

LSZ147-162-190800-
LAKE SUPERIOR
  
STATION/POSITION TIME  TEMP    WIND        PRES    WAVE
                       AIR SEA DIR/SP/G            HT/PER
                 (UTC) (F)     (DEG/KT/KT) (MB)    (FT/S)
W MID LAKE BUOY  0550   66 63  260/ 16/ 19 1009.5R   2/ 4
DEVILS ISLAND    0600   65     240/ 18/ 21 1011.1R
SAXON HARBOR     0640   58     190/  7/  9 1012.2R
$$
 
LMZ867-665-643>646-190800-
LAKE MICHIGAN
  
STATION/POSITION TIME  TEMP    WIND        PRES    WAVE
                       AIR SEA DIR/SP/G            HT/PER
                 (UTC) (F)     (DEG/KT/KT) (MB)    (FT/S)
S GREEN BAY BUOY 0600   72 69  280/  8/ 10 1012.7
N MID LAKE BUOY  0640   68 69  290/  6/ 10 1012.3R
NORTHPORT PIER   0640   63     250/  2/  4 1012.2R
KEWAUNEE LAKESHO 0624   64     310/  3/  7 1012.2
SHEBOYGAN LAKESH 0600   68     270/  7/  9 1012.8R
PORT WASHINGTON  0640   69     270/  4/  7 1014.2R
S MID LAKE BUOY  0640   73 73  280/  8/  8 1013.4R
KENOSHA   LAKESH 0600   71     260/  6/  8 1013.2
$$

TC  - TEMPERATURE IN CELSIUS
VSB - VISIBILITY IN STATUTE MILES
WCI - WIND CHILL INDEX
HX  - HEAT INDEX